Flag for Canada Weather past 2 weeks in Charlottetown, Pr.Edward I, Canada

Now
66 °F

Partly cloudy.


Feels Like: 66 °F
Forecast: 66 / 78 °F
Wind: 14 mph from Southeast

Location: Charlottetown

Current Time: Jul 28, 2014 at 2:31:41 AM

Latest Report: Jul 28, 2014 at 2:00 AM


Visibility: 15 mi

Pressure: 29.86 "Hg

Humidity: 88%

Dew point: 63 °F

Location of CharlottetownLocation

Historic Weather in Charlottetown — Graph

°F

Charlottetown temperature yesterday

Maximum temperature yesterday: 79 °F (at 3:00 PM)
Minimum temperature yesterday: 64 °F (at 4:00 AM)
Average temperature yesterday: 70 °F

Past Weeks' High & Low Weather Summary

 TemperatureHumidityPressure
High84 °F (Jul 16, 3:00 PM)100% (Jul 15, 2:50 PM)30.28 "Hg (Jul 15, 2:50 PM)
Low54 °F (Jul 20, 5:00 AM)34% (Jul 21, 4:00 PM)29.69 "Hg (Jul 23, 6:00 PM)
Average70 °F78%29.95 "Hg
* Reported Jul 13 1:00 AM — Jul 28 1:00 AM, Charlottetown, Weather by CustomWeather, © 2014

Note: Actual official high and low records may vary slightly from our data, if they occured in-between our weather recording intervals... More about our weather records

Advertising

Charlottetown weather history for previous 24 hours

 ConditionsComfort  
Time TempWeatherWind HumidityBarometerVisibility
1:00 AM
Jul 28
66 °FMostly cloudy.15 mph88%29.88 "Hg15 mi
12:00 AM66 °FMostly cloudy.17 mph83%29.89 "Hg15 mi
11:00 PM
Jul 27
68 °FOvercast.18 mph78%29.89 "Hg15 mi
10:00 PM68 °FPartly cloudy.17 mph78%29.90 "Hg15 mi
9:00 PM70 °FBroken clouds.20 mph78%29.89 "Hg15 mi
8:00 PM70 °FBroken clouds.22 mph83%29.87 "Hg15 mi
7:00 PM75 °FBroken clouds.18 mph65%29.86 "Hg15 mi
6:00 PM77 °FBroken clouds.14 mph54%29.86 "Hg15 mi
5:00 PM77 °FPartly sunny.17 mph54%29.85 "Hg15 mi
4:00 PM79 °FPartly sunny.18 mph51%29.86 "Hg15 mi
3:00 PM79 °FPartly sunny.18 mph51%29.87 "Hg15 mi
2:00 PM77 °FPartly sunny.16 mph54%29.88 "Hg15 mi
1:00 PM75 °FPartly sunny.17 mph57%29.89 "Hg15 mi
12:00 PM72 °FPartly sunny.17 mph65%29.91 "Hg12 mi
11:00 AM70 °FBroken clouds.22 mph60%29.92 "Hg12 mi
10:00 AM70 °FBroken clouds.15 mph69%29.91 "Hg12 mi
9:00 AM70 °FBroken clouds.13 mph69%29.91 "Hg12 mi
8:00 AM66 °FBroken clouds.12 mph78%29.91 "Hg12 mi
7:00 AM64 °FBroken clouds.10 mph83%29.91 "Hg10 mi
6:00 AM64 °FPassing clouds.10 mph83%29.90 "Hg10 mi
5:00 AM64 °FPassing clouds.9 mph78%29.90 "Hg10 mi
4:00 AM64 °FPassing clouds.8 mph78%29.89 "Hg10 mi
3:00 AM66 °FPartly cloudy.8 mph73%29.89 "Hg10 mi
2:00 AM66 °FPartly cloudy.9 mph78%29.90 "Hg10 mi
Weather by CustomWeather, © 2014

See weather overviewHow to use our weather pages